Time,TemperatureF,DewpointF,PressureIn,WindDirection,WindDirectionDegrees,WindSpeedMPH,WindSpeedGustMPH,Humidity,HourlyPrecipIn,Conditions,Clouds,dailyrainin,SoftwareType,DateUTC
2013-03-19 00:00:00,30.9,28.9,29.90,ESE,119,3.4,5.8,92,0.00,CLR,,0.00,WeatherDisplay:10.37,2013-03-19 04:00:00,
2013-03-19 00:01:00,30.9,28.9,29.90,East,92,4.9,6.0,92,0.00,CLR,,0.00,WeatherDisplay:10.37,2013-03-19 04:01:00,
2013-03-19 00:03:00,31.0,28.9,29.89,ENE,72,1.4,6.9,92,0.00,CLR,,0.00,WeatherDisplay:10.37,2013-03-19 04:03:00,
2013-03-19 00:08:00,31.2,29.4,29.88,East,92,6.3,10.4,93,0.00,CLR,,0.00,WeatherDisplay:10.37,2013-03-19 04:08:00,
2013-03-19 00:14:00,31.2,29.4,29.87,East,85,6.4,8.0,93,0.00,CLR,,0.00,WeatherDisplay:10.37,2013-03-19 04:14:00,
2013-03-19 00:19:00,31.3,29.5,29.87,East,86,6.3,9.2,93,0.00,CLR,,0.00,WeatherDisplay:10.37,2013-03-19 04:19:00,
2013-03-19 00:24:00,31.3,29.5,29.86,NE,42,3.9,9.2,93,0.00,CLR,,0.00,WeatherDisplay:10.37,2013-03-19 04:24:00,
2013-03-19 00:29:00,31.5,29.7,29.86,East,86,5.7,10.4,93,0.00,CLR,,0.00,WeatherDisplay:10.37,2013-03-19 04:29:00,
2013-03-19 00:35:00,31.6,29.8,29.87,East,80,6.9,11.5,93,0.00,CLR,,0.00,WeatherDisplay:10.37,2013-03-19 04:35:00,
2013-03-19 00:40:00,31.6,29.8,29.87,East,97,2.4,6.9,93,0.00,CLR,,0.00,WeatherDisplay:10.37,2013-03-19 04:40:00,
2013-03-19 00:45:00,31.8,30.0,29.87,ENE,73,5.7,8.1,93,0.00,CLR,,0.00,WeatherDisplay:10.37,2013-03-19 04:45:00,
2013-03-19 00:50:00,31.8,30.0,29.86,East,82,0.9,5.8,93,0.00,CLR,,0.00,WeatherDisplay:10.37,2013-03-19 04:50:00,
2013-03-19 00:55:00,31.9,30.1,29.85,East,79,1.7,6.9,93,0.00,CLR,,0.00,WeatherDisplay:10.37,2013-03-19 04:55:00,
2013-03-19 01:00:00,32.1,30.3,29.85,East,86,3.8,8.1,93,0.00,CLR,,0.00,WeatherDisplay:10.37,2013-03-19 05:00:00,
2013-03-19 01:05:00,32.1,30.3,29.85,SE,124,5.0,8.1,93,0.00,CLR,,0.00,WeatherDisplay:10.37,2013-03-19 05:05:00,
2013-03-19 01:10:00,32.1,30.3,29.85,East,83,4.9,9.0,93,0.00,CLR,,0.00,WeatherDisplay:10.37,2013-03-19 05:10:00,
2013-03-19 01:16:00,32.1,30.6,29.84,NE,38,4.1,11.5,94,0.00,CLR,,0.00,WeatherDisplay:10.37,2013-03-19 05:16:00,
2013-03-19 01:21:00,32.1,30.6,29.83,NNE,13,1.9,4.6,94,0.00,CLR,,0.00,WeatherDisplay:10.37,2013-03-19 05:21:00,
2013-03-19 01:26:00,32.1,30.6,29.83,NE,47,5.2,8.1,94,0.00,CLR,,0.00,WeatherDisplay:10.37,2013-03-19 05:26:00,
2013-03-19 01:31:00,32.1,30.6,29.83,East,82,5.9,11.0,94,0.00,CLR,,0.00,WeatherDisplay:10.37,2013-03-19 05:31:00,
2013-03-19 01:36:00,32.2,30.7,29.84,NNE,13,2.8,6.9,94,0.00,CLR,,0.00,WeatherDisplay:10.37,2013-03-19 05:36:00,
2013-03-19 01:41:00,32.2,30.7,29.84,ENE,75,0.5,3.5,94,0.00,CLR,,0.00,WeatherDisplay:10.37,2013-03-19 05:41:00,
2013-03-19 01:46:00,32.2,30.7,29.84,NNE,21,1.7,4.6,94,0.00,CLR,,0.00,WeatherDisplay:10.37,2013-03-19 05:46:00,
2013-03-19 01:51:00,32.2,30.7,29.84,NNW,346,0.0,3.5,94,0.00,CLR,,0.00,WeatherDisplay:10.37,2013-03-19 05:51:00,
2013-03-19 01:56:00,32.2,30.7,29.84,NE,34,3.8,5.8,94,0.00,CLR,,0.00,WeatherDisplay:10.37,2013-03-19 05:56:00,
2013-03-19 02:01:00,32.2,30.7,29.85,NE,48,0.0,1.2,94,0.00,CLR,,0.00,WeatherDisplay:10.37,2013-03-19 06:01:00,
2013-03-19 02:07:00,32.2,30.7,29.84,ENE,76,5.3,8.1,94,0.00,CLR,,0.00,WeatherDisplay:10.37,2013-03-19 06:07:00,
2013-03-19 02:12:00,32.2,30.7,29.84,East,83,3.6,5.8,94,0.00,CLR,,0.00,WeatherDisplay:10.37,2013-03-19 06:12:00,
2013-03-19 02:17:00,32.2,30.7,29.83,ENE,78,5.6,11.5,94,0.00,CLR,,0.00,WeatherDisplay:10.37,2013-03-19 06:17:00,
2013-03-19 02:22:00,32.2,30.4,29.84,East,82,0.4,3.5,93,0.00,CLR,,0.00,WeatherDisplay:10.37,2013-03-19 06:22:00,
2013-03-19 02:27:00,32.2,30.4,29.83,ENE,61,8.3,11.5,93,0.00,CLR,,0.00,WeatherDisplay:10.37,2013-03-19 06:27:00,
2013-03-19 02:32:00,32.2,30.4,29.82,ENE,78,5.2,8.1,93,0.00,CLR,,0.00,WeatherDisplay:10.37,2013-03-19 06:32:00,
2013-03-19 02:37:00,32.2,30.4,29.82,ENE,76,6.9,8.1,93,0.00,CLR,,0.00,WeatherDisplay:10.37,2013-03-19 06:37:00,
2013-03-19 02:42:00,32.2,30.4,29.82,ENE,76,4.3,10.4,93,0.00,CLR,,0.00,WeatherDisplay:10.37,2013-03-19 06:42:00,
2013-03-19 02:47:00,32.2,30.4,29.82,East,92,3.6,5.8,93,0.00,CLR,,0.00,WeatherDisplay:10.37,2013-03-19 06:47:00,
2013-03-19 02:53:00,32.2,30.4,29.82,East,92,5.9,5.9,93,0.00,CLR,,0.00,WeatherDisplay:10.37,2013-03-19 06:53:00,
2013-03-19 02:58:00,32.4,30.6,29.81,ENE,64,1.7,5.8,93,0.00,CLR,,0.00,WeatherDisplay:10.37,2013-03-19 06:58:00,
2013-03-19 03:03:00,32.4,30.6,29.81,ENE,68,3.4,5.8,93,0.01,RA,,0.01,WeatherDisplay:10.37,2013-03-19 07:03:00,
2013-03-19 03:08:00,32.4,30.6,29.80,ENE,71,2.2,3.5,93,0.01,RA,,0.01,WeatherDisplay:10.37,2013-03-19 07:08:00,
2013-03-19 03:13:00,32.5,30.7,29.80,NNE,18,4.2,8.1,93,0.01,CLR,,0.01,WeatherDisplay:10.37,2013-03-19 07:13:00,
2013-03-19 03:18:00,32.5,30.4,29.79,ENE,72,7.6,10.4,92,0.01,CLR,,0.01,WeatherDisplay:10.37,2013-03-19 07:18:00,
2013-03-19 03:23:00,32.5,30.4,29.79,East,83,4.2,12.7,92,0.01,CLR,,0.01,WeatherDisplay:10.37,2013-03-19 07:23:00,
2013-03-19 03:28:00,32.5,30.4,29.78,East,90,1.1,5.0,92,0.01,CLR,,0.01,WeatherDisplay:10.37,2013-03-19 07:28:00,
2013-03-19 03:33:00,32.5,30.4,29.77,NNE,18,4.6,10.4,92,0.01,CLR,,0.01,WeatherDisplay:10.37,2013-03-19 07:33:00,
2013-03-19 03:38:00,32.5,30.4,29.77,ENE,69,4.8,10.4,92,0.01,CLR,,0.01,WeatherDisplay:10.37,2013-03-19 07:38:00,
2013-03-19 03:43:00,32.7,30.6,29.77,ENE,76,4.0,12.7,92,0.02,RA,,0.02,WeatherDisplay:10.37,2013-03-19 07:43:00,
2013-03-19 03:48:00,32.7,30.6,29.77,NE,41,2.5,11.5,92,0.02,RA,,0.02,WeatherDisplay:10.37,2013-03-19 07:48:00,
2013-03-19 03:54:00,32.5,30.4,29.77,NE,38,1.0,5.8,92,0.02,CLR,,0.02,WeatherDisplay:10.37,2013-03-19 07:54:00,
2013-03-19 03:59:00,32.5,30.4,29.77,NE,45,1.8,7.0,92,0.02,CLR,,0.02,WeatherDisplay:10.37,2013-03-19 07:59:00,
2013-03-19 04:04:00,32.7,30.6,29.77,ENE,64,2.3,5.8,92,0.01,CLR,,0.02,WeatherDisplay:10.37,2013-03-19 08:04:00,
2013-03-19 04:09:00,32.7,30.6,29.77,East,92,3.7,6.9,92,0.01,CLR,,0.02,WeatherDisplay:10.37,2013-03-19 08:09:00,
2013-03-19 04:14:00,32.8,30.7,29.77,NE,49,0.0,3.5,92,0.01,CLR,,0.02,WeatherDisplay:10.37,2013-03-19 08:14:00,
2013-03-19 04:19:00,32.7,30.6,29.77,NE,47,0.9,2.0,92,0.01,CLR,,0.02,WeatherDisplay:10.37,2013-03-19 08:19:00,
2013-03-19 04:25:00,32.7,30.6,29.77,ENE,75,1.5,3.5,92,0.01,CLR,,0.02,WeatherDisplay:10.37,2013-03-19 08:25:00,
2013-03-19 04:30:00,32.7,30.6,29.77,East,96,0.0,0.0,92,0.01,CLR,,0.02,WeatherDisplay:10.37,2013-03-19 08:30:00,
2013-03-19 04:35:00,32.7,30.6,29.77,NNE,32,0.0,0.0,92,0.01,CLR,,0.02,WeatherDisplay:10.37,2013-03-19 08:35:00,
2013-03-19 04:40:00,32.5,30.4,29.76,ENE,72,0.0,2.3,92,0.01,CLR,,0.02,WeatherDisplay:10.37,2013-03-19 08:40:00,
2013-03-19 04:45:00,32.5,30.4,29.76,NE,44,1.2,6.9,92,0.00,CLR,,0.02,WeatherDisplay:10.37,2013-03-19 08:45:00,
2013-03-19 04:51:00,32.5,30.4,29.76,NNE,28,0.5,0.0,92,0.00,CLR,,0.02,WeatherDisplay:10.37,2013-03-19 08:51:00,
2013-03-19 04:56:00,32.5,30.7,29.75,East,90,2.7,10.4,93,0.01,RA,,0.03,WeatherDisplay:10.37,2013-03-19 08:56:00,
2013-03-19 05:01:00,32.5,30.7,29.75,NE,56,3.0,5.8,93,0.01,RA,,0.03,WeatherDisplay:10.37,2013-03-19 09:01:00,
2013-03-19 05:06:00,32.5,30.7,29.75,NE,49,0.5,2.3,93,0.01,,,0.03,WeatherDisplay:10.37,2013-03-19 09:06:00,
2013-03-19 05:12:00,32.5,30.7,29.74,ENE,64,0.0,0.0,93,0.01,CLR,,0.03,WeatherDisplay:10.37,2013-03-19 09:12:00,
2013-03-19 05:17:00,32.5,30.7,29.74,ENE,72,3.9,8.1,93,0.01,CLR,,0.03,WeatherDisplay:10.37,2013-03-19 09:17:00,
2013-03-19 05:22:00,32.5,30.7,29.74,ENE,65,1.6,6.9,93,0.01,CLR,,0.03,WeatherDisplay:10.37,2013-03-19 09:22:00,
2013-03-19 05:27:00,32.5,30.7,29.74,ENE,65,0.0,3.5,93,0.01,CLR,,0.03,WeatherDisplay:10.37,2013-03-19 09:27:00,
2013-03-19 05:33:00,32.5,30.7,29.73,NE,49,2.3,5.8,93,0.01,CLR,,0.03,WeatherDisplay:10.37,2013-03-19 09:33:00,
2013-03-19 05:38:00,32.5,30.7,29.73,ENE,69,5.6,8.1,93,0.01,CLR,,0.03,WeatherDisplay:10.37,2013-03-19 09:38:00,
2013-03-19 05:43:00,32.5,30.7,29.73,NNE,18,0.3,3.5,93,0.01,CLR,,0.03,WeatherDisplay:10.37,2013-03-19 09:43:00,
2013-03-19 05:48:00,32.7,30.9,29.73,NE,49,4.3,6.0,93,0.01,CLR,,0.03,WeatherDisplay:10.37,2013-03-19 09:48:00,
2013-03-19 05:53:00,32.7,30.9,29.73,NNE,21,3.1,6.0,93,0.01,CLR,,0.03,WeatherDisplay:10.37,2013-03-19 09:53:00,
2013-03-19 05:58:00,32.7,30.9,29.73,East,80,1.2,4.6,93,0.00,CLR,,0.03,WeatherDisplay:10.37,2013-03-19 09:58:00,
2013-03-19 06:03:00,32.7,30.9,29.72,NE,49,4.6,12.0,93,0.00,CLR,,0.03,WeatherDisplay:10.37,2013-03-19 10:03:00,
2013-03-19 06:08:00,32.7,30.9,29.72,ENE,64,2.0,4.6,93,0.00,CLR,,0.03,WeatherDisplay:10.37,2013-03-19 10:08:00,
2013-03-19 06:14:00,32.8,31.0,29.72,NE,56,2.4,4.6,93,0.00,CLR,,0.03,WeatherDisplay:10.37,2013-03-19 10:14:00,
2013-03-19 06:19:00,32.8,31.3,29.72,East,80,4.3,6.9,94,0.01,RA,,0.04,WeatherDisplay:10.37,2013-03-19 10:19:00,
2013-03-19 06:24:00,32.8,31.3,29.72,NE,55,1.2,3.5,94,0.01,RA,,0.04,WeatherDisplay:10.37,2013-03-19 10:24:00,
2013-03-19 06:29:00,32.8,31.3,29.72,ENE,59,1.7,3.5,94,0.01,CLR,,0.04,WeatherDisplay:10.37,2013-03-19 10:29:00,
2013-03-19 06:34:00,32.8,31.3,29.72,ENE,75,3.8,6.9,94,0.01,CLR,,0.04,WeatherDisplay:10.37,2013-03-19 10:34:00,
2013-03-19 06:40:00,32.8,31.3,29.72,NE,41,0.0,0.0,94,0.01,CLR,,0.04,WeatherDisplay:10.37,2013-03-19 10:40:00,
2013-03-19 06:45:00,32.9,31.4,29.72,NE,51,0.1,2.3,94,0.01,CLR,,0.04,WeatherDisplay:10.37,2013-03-19 10:45:00,
2013-03-19 06:50:00,32.9,31.4,29.72,ENE,62,3.0,5.8,94,0.01,CLR,,0.04,WeatherDisplay:10.37,2013-03-19 10:50:00,
2013-03-19 06:55:00,32.9,31.4,29.73,NE,42,0.1,3.5,94,0.01,CLR,,0.04,WeatherDisplay:10.37,2013-03-19 10:55:00,
2013-03-19 07:00:00,32.9,31.4,29.73,North,7,3.4,5.8,94,0.01,CLR,,0.04,WeatherDisplay:10.37,2013-03-19 11:00:00,
2013-03-19 07:05:00,32.9,31.4,29.73,ENE,66,1.3,3.5,94,0.01,CLR,,0.04,WeatherDisplay:10.37,2013-03-19 11:05:00,
2013-03-19 07:11:00,32.9,31.4,29.72,NE,45,0.3,2.3,94,0.01,CLR,,0.04,WeatherDisplay:10.37,2013-03-19 11:11:00,
2013-03-19 07:16:00,32.9,31.4,29.72,ENE,73,3.4,5.8,94,0.01,CLR,,0.04,WeatherDisplay:10.37,2013-03-19 11:16:00,
2013-03-19 07:21:00,32.9,31.4,29.72,ENE,68,2.5,3.5,94,0.00,CLR,,0.04,WeatherDisplay:10.37,2013-03-19 11:21:00,
2013-03-19 07:26:00,32.9,31.4,29.72,ENE,69,2.3,4.6,94,0.00,CLR,,0.04,WeatherDisplay:10.37,2013-03-19 11:26:00,
2013-03-19 07:32:00,32.9,31.4,29.71,NE,51,2.3,4.6,94,0.00,CLR,,0.04,WeatherDisplay:10.37,2013-03-19 11:32:00,
2013-03-19 07:37:00,32.9,31.4,29.71,ENE,69,2.7,4.6,94,0.00,CLR,,0.04,WeatherDisplay:10.37,2013-03-19 11:37:00,
2013-03-19 07:42:00,32.9,31.4,29.71,ENE,59,3.6,5.0,94,0.00,CLR,,0.04,WeatherDisplay:10.37,2013-03-19 11:42:00,
2013-03-19 07:47:00,32.9,31.4,29.72,NNE,27,1.4,2.0,94,0.00,CLR,,0.04,WeatherDisplay:10.37,2013-03-19 11:47:00,
2013-03-19 07:53:00,32.9,31.4,29.72,ENE,62,0.9,3.5,94,0.00,CLR,,0.04,WeatherDisplay:10.37,2013-03-19 11:53:00,
2013-03-19 07:58:00,32.9,31.4,29.71,ENE,65,3.7,6.9,94,0.00,CLR,,0.04,WeatherDisplay:10.37,2013-03-19 11:58:00,
2013-03-19 08:03:00,33.1,31.6,29.71,NE,51,5.2,7.0,94,0.00,CLR,,0.04,WeatherDisplay:10.37,2013-03-19 12:03:00,
2013-03-19 08:08:00,32.9,31.4,29.70,East,83,2.0,3.5,94,0.00,CLR,,0.04,WeatherDisplay:10.37,2013-03-19 12:08:00,
2013-03-19 08:13:00,32.9,31.4,29.71,ENE,64,3.6,6.9,94,0.00,CLR,,0.04,WeatherDisplay:10.37,2013-03-19 12:13:00,
2013-03-19 08:18:00,32.9,31.4,29.70,ENE,72,3.3,5.0,94,0.00,CLR,,0.04,WeatherDisplay:10.37,2013-03-19 12:18:00,
2013-03-19 08:23:00,32.9,31.4,29.71,NE,45,1.3,4.6,94,0.00,CLR,,0.04,WeatherDisplay:10.37,2013-03-19 12:23:00,
2013-03-19 08:28:00,32.9,31.4,29.71,NE,42,2.0,3.5,94,0.00,CLR,,0.04,WeatherDisplay:10.37,2013-03-19 12:28:00,
2013-03-19 08:33:00,33.1,31.8,29.70,ENE,58,2.6,4.6,95,0.00,CLR,,0.04,WeatherDisplay:10.37,2013-03-19 12:33:00,
2013-03-19 08:38:00,33.1,31.8,29.71,ENE,66,2.0,5.8,95,0.00,CLR,,0.04,WeatherDisplay:10.37,2013-03-19 12:38:00,
2013-03-19 08:43:00,33.1,31.8,29.71,NE,40,0.0,8.1,95,0.00,CLR,,0.04,WeatherDisplay:10.37,2013-03-19 12:43:00,
2013-03-19 08:49:00,33.1,31.8,29.70,ENE,62,2.9,4.6,95,0.00,CLR,,0.04,WeatherDisplay:10.37,2013-03-19 12:49:00,
2013-03-19 08:54:00,33.1,31.8,29.70,NNE,27,1.6,4.6,95,0.00,CLR,,0.04,WeatherDisplay:10.37,2013-03-19 12:54:00,
2013-03-19 08:59:00,33.1,31.8,29.71,North,0,1.4,3.5,95,0.00,CLR,,0.04,WeatherDisplay:10.37,2013-03-19 12:59:00,
2013-03-19 09:04:00,33.1,31.8,29.71,NNE,13,2.0,5.8,95,0.00,CLR,,0.04,WeatherDisplay:10.37,2013-03-19 13:04:00,
2013-03-19 09:09:00,33.1,31.8,29.71,North,4,1.3,4.6,95,0.00,CLR,,0.04,WeatherDisplay:10.37,2013-03-19 13:09:00,
2013-03-19 09:14:00,33.1,31.8,29.71,North,0,0.6,3.5,95,0.00,CLR,,0.04,WeatherDisplay:10.37,2013-03-19 13:14:00,
2013-03-19 09:19:00,33.1,31.8,29.72,North,11,2.2,5.8,95,0.00,CLR,,0.05,WeatherDisplay:10.37,2013-03-19 13:19:00,
2013-03-19 09:25:00,33.2,31.9,29.72,North,0,2.5,3.5,95,0.01,RA,,0.05,WeatherDisplay:10.37,2013-03-19 13:25:00,
2013-03-19 09:30:00,33.2,31.9,29.72,North,0,0.0,0.0,95,0.01,,,0.05,WeatherDisplay:10.37,2013-03-19 13:30:00,
2013-03-19 09:35:00,33.2,31.9,29.73,North,0,0.0,0.0,95,0.02,RA,,0.06,WeatherDisplay:10.37,2013-03-19 13:35:00,
2013-03-19 09:40:00,33.2,31.9,29.73,North,0,0.0,0.0,95,0.02,RA,,0.06,WeatherDisplay:10.37,2013-03-19 13:40:00,
2013-03-19 09:45:00,33.4,32.1,29.73,North,0,0.0,0.0,95,0.02,,,0.06,WeatherDisplay:10.37,2013-03-19 13:45:00,
2013-03-19 09:51:00,33.4,32.1,29.73,North,0,0.0,0.0,95,0.03,RA,,0.07,WeatherDisplay:10.37,2013-03-19 13:51:00,
2013-03-19 09:56:00,33.4,32.1,29.73,North,357,0.0,0.0,95,0.04,RA,,0.08,WeatherDisplay:10.37,2013-03-19 13:56:00,
2013-03-19 10:01:00,33.1,31.8,29.72,NNW,340,0.4,5.0,95,0.04,RA,,0.08,WeatherDisplay:10.37,2013-03-19 14:01:00,
2013-03-19 10:06:00,32.7,31.4,29.72,NW,320,0.1,0.0,95,0.05,RA,,0.09,WeatherDisplay:10.37,2013-03-19 14:06:00,
2013-03-19 10:12:00,32.5,31.2,29.73,WNW,299,0.0,0.0,95,0.05,RA,,0.09,WeatherDisplay:10.37,2013-03-19 14:12:00,
2013-03-19 10:17:00,32.4,31.1,29.74,NW,305,0.7,2.3,95,0.06,RA,,0.10,WeatherDisplay:10.37,2013-03-19 14:17:00,
2013-03-19 10:22:00,32.2,30.9,29.72,NNW,335,1.9,3.5,95,0.05,RA,,0.10,WeatherDisplay:10.37,2013-03-19 14:22:00,
2013-03-19 10:27:00,32.2,30.9,29.72,North,1,2.8,5.8,95,0.05,,,0.10,WeatherDisplay:10.37,2013-03-19 14:27:00,
2013-03-19 10:33:00,32.2,30.9,29.72,North,0,1.2,2.3,95,0.05,CLR,,0.10,WeatherDisplay:10.37,2013-03-19 14:33:00,
2013-03-19 10:38:00,32.2,30.9,29.72,North,357,1.7,3.5,95,0.05,RA,,0.11,WeatherDisplay:10.37,2013-03-19 14:38:00,
2013-03-19 10:43:00,32.2,30.9,29.73,North,0,0.7,2.3,95,0.05,RA,,0.11,WeatherDisplay:10.37,2013-03-19 14:43:00,
2013-03-19 10:48:00,32.2,30.9,29.74,North,0,0.0,0.0,95,0.04,,,0.11,WeatherDisplay:10.37,2013-03-19 14:48:00,
2013-03-19 10:53:00,32.2,30.9,29.73,North,0,0.0,0.0,95,0.04,CLR,,0.11,WeatherDisplay:10.37,2013-03-19 14:53:00,
2013-03-19 10:58:00,32.1,30.8,29.72,North,6,1.3,4.6,95,0.04,RA,,0.12,WeatherDisplay:10.37,2013-03-19 14:58:00,
2013-03-19 11:04:00,32.1,30.8,29.72,North,6,1.7,3.5,95,0.03,RA,,0.12,WeatherDisplay:10.37,2013-03-19 15:04:00,
2013-03-19 11:09:00,32.2,30.9,29.72,North,0,2.3,3.5,95,0.03,CLR,,0.12,WeatherDisplay:10.37,2013-03-19 15:09:00,
2013-03-19 11:14:00,32.2,30.9,29.72,North,0,1.4,2.3,95,0.03,CLR,,0.12,WeatherDisplay:10.37,2013-03-19 15:14:00,
2013-03-19 11:19:00,32.5,31.2,29.72,North,0,0.0,0.0,95,0.03,RA,,0.13,WeatherDisplay:10.37,2013-03-19 15:19:00,
2013-03-19 11:24:00,32.9,31.6,29.72,North,0,0.0,0.0,95,0.03,RA,,0.13,WeatherDisplay:10.37,2013-03-19 15:24:00,
2013-03-19 11:29:00,33.1,31.8,29.72,North,0,0.0,0.0,95,0.04,RA,,0.14,WeatherDisplay:10.37,2013-03-19 15:29:00,
2013-03-19 11:35:00,33.4,32.1,29.72,North,0,0.0,0.0,95,0.05,RA,,0.15,WeatherDisplay:10.37,2013-03-19 15:35:00,
2013-03-19 11:40:00,33.4,32.1,29.72,North,0,0.0,0.0,95,0.05,RA,,0.16,WeatherDisplay:10.37,2013-03-19 15:40:00,
2013-03-19 11:45:00,33.2,31.9,29.71,North,0,2.0,3.5,95,0.06,RA,,0.17,WeatherDisplay:10.37,2013-03-19 15:45:00,
2013-03-19 11:50:00,33.4,32.1,29.70,North,357,0.0,0.0,95,0.07,RA,,0.18,WeatherDisplay:10.37,2013-03-19 15:50:00,
2013-03-19 11:55:00,33.7,32.4,29.71,North,357,0.0,0.0,95,0.08,RA,,0.19,WeatherDisplay:10.37,2013-03-19 15:55:00,
2013-03-19 12:00:00,33.5,32.2,29.72,North,357,0.0,0.0,95,0.07,RA,,0.19,WeatherDisplay:10.37,2013-03-19 16:00:00,
2013-03-19 12:05:00,33.5,32.2,29.71,North,359,1.3,4.6,95,0.08,RA,,0.20,WeatherDisplay:10.37,2013-03-19 16:05:00,
2013-03-19 12:11:00,33.5,32.2,29.71,North,0,0.0,1.0,95,0.09,RA,,0.21,WeatherDisplay:10.37,2013-03-19 16:11:00,
2013-03-19 12:16:00,33.5,32.2,29.72,NW,316,0.0,0.0,95,0.09,RA,,0.22,WeatherDisplay:10.37,2013-03-19 16:16:00,
2013-03-19 12:22:00,33.7,32.4,29.72,WNW,299,0.0,0.0,95,0.10,RA,,0.23,WeatherDisplay:10.37,2013-03-19 16:22:00,
2013-03-19 12:27:00,33.8,32.5,29.72,WNW,288,2.1,3.5,95,0.10,RA,,0.23,WeatherDisplay:10.37,2013-03-19 16:27:00,
2013-03-19 12:32:00,33.8,32.5,29.71,WNW,296,0.0,0.0,95,0.10,RA,,0.24,WeatherDisplay:10.37,2013-03-19 16:32:00,
2013-03-19 12:37:00,34.0,32.7,29.71,WNW,298,0.0,0.0,95,0.10,RA,,0.25,WeatherDisplay:10.37,2013-03-19 16:37:00,
2013-03-19 12:42:00,34.1,32.8,29.71,WNW,298,0.0,0.0,95,0.09,RA,,0.25,WeatherDisplay:10.37,2013-03-19 16:42:00,
2013-03-19 12:47:00,34.0,32.7,29.70,NW,313,0.0,0.0,95,0.09,RA,,0.26,WeatherDisplay:10.37,2013-03-19 16:47:00,
2013-03-19 12:53:00,34.4,33.1,29.70,NW,313,0.0,0.0,95,0.09,RA,,0.27,WeatherDisplay:10.37,2013-03-19 16:53:00,
2013-03-19 12:58:00,34.3,32.8,29.69,North,0,2.4,4.6,94,0.09,RA,,0.28,WeatherDisplay:10.37,2013-03-19 16:58:00,
2013-03-19 13:03:00,34.3,32.8,29.69,North,0,2.2,2.3,94,0.09,RA,,0.29,WeatherDisplay:10.37,2013-03-19 17:03:00,
2013-03-19 13:08:00,34.3,32.8,29.69,North,0,4.5,5.8,94,0.09,RA,,0.30,WeatherDisplay:10.37,2013-03-19 17:08:00,
2013-03-19 13:14:00,34.3,32.8,29.69,North,359,2.3,3.5,94,0.10,RA,,0.31,WeatherDisplay:10.37,2013-03-19 17:14:00,
2013-03-19 13:19:00,34.3,32.8,29.69,North,359,2.7,5.8,94,0.09,RA,,0.31,WeatherDisplay:10.37,2013-03-19 17:19:00,
2013-03-19 13:24:00,34.4,32.9,29.69,North,359,3.1,5.0,94,0.10,RA,,0.32,WeatherDisplay:10.37,2013-03-19 17:24:00,
2013-03-19 13:29:00,34.6,33.1,29.69,North,0,3.0,4.6,94,0.10,RA,,0.32,WeatherDisplay:10.37,2013-03-19 17:29:00,
2013-03-19 13:34:00,35.5,33.9,29.68,North,0,2.5,3.5,94,0.10,RA,,0.34,WeatherDisplay:10.37,2013-03-19 17:34:00,
2013-03-19 13:39:00,35.8,34.2,29.67,North,0,0.1,1.2,94,0.11,RA,,0.35,WeatherDisplay:10.37,2013-03-19 17:39:00,
2013-03-19 13:45:00,35.9,34.1,29.67,North,0,2.9,5.8,93,0.10,RA,,0.36,WeatherDisplay:10.37,2013-03-19 17:45:00,
2013-03-19 13:50:00,35.9,33.8,29.67,North,354,2.3,4.6,92,0.12,RA,,0.37,WeatherDisplay:10.37,2013-03-19 17:50:00,
2013-03-19 13:55:00,35.9,33.8,29.67,WNW,294,0.9,3.5,92,0.12,RA,,0.38,WeatherDisplay:10.37,2013-03-19 17:55:00,
2013-03-19 14:00:00,36.0,33.9,29.67,NNW,333,2.9,3.5,92,0.13,RA,,0.39,WeatherDisplay:10.37,2013-03-19 18:00:00,
2013-03-19 14:05:00,36.0,33.6,29.67,WNW,295,2.0,3.5,91,0.12,RA,,0.39,WeatherDisplay:10.37,2013-03-19 18:05:00,
2013-03-19 14:10:00,35.9,33.3,29.67,North,0,8.4,9.2,90,0.11,,,0.39,WeatherDisplay:10.37,2013-03-19 18:10:00,
2013-03-19 14:15:00,35.9,33.3,29.67,West,275,1.6,3.5,90,0.11,RA,,0.40,WeatherDisplay:10.37,2013-03-19 18:15:00,
2013-03-19 14:20:00,36.5,34.1,29.67,West,281,0.0,0.0,91,0.11,RA,,0.41,WeatherDisplay:10.37,2013-03-19 18:20:00,
2013-03-19 14:25:00,37.2,34.5,29.67,WNW,302,1.6,3.5,90,0.10,RA,,0.41,WeatherDisplay:10.37,2013-03-19 18:25:00,
2013-03-19 14:30:00,37.3,34.4,29.67,NW,309,1.8,2.3,89,0.10,RA,,0.42,WeatherDisplay:10.37,2013-03-19 18:30:00,
2013-03-19 14:35:00,37.8,34.8,29.67,NNW,332,0.0,0.0,89,0.09,RA,,0.42,WeatherDisplay:10.37,2013-03-19 18:35:00,
2013-03-19 14:40:00,38.2,35.0,29.66,NW,325,0.0,0.0,88,0.09,RA,,0.43,WeatherDisplay:10.37,2013-03-19 18:40:00,
2013-03-19 14:46:00,37.9,34.1,29.66,North,0,4.4,5.8,86,0.09,RA,,0.44,WeatherDisplay:10.37,2013-03-19 18:46:00,
2013-03-19 14:51:00,37.9,34.1,29.65,NNW,333,2.8,5.8,86,0.07,RA,,0.44,WeatherDisplay:10.37,2013-03-19 18:51:00,
2013-03-19 14:56:00,37.9,33.8,29.65,North,0,3.1,3.5,85,0.07,RA,,0.45,WeatherDisplay:10.37,2013-03-19 18:56:00,
2013-03-19 15:01:00,38.2,33.8,29.65,NNW,333,1.6,4.6,84,0.06,RA,,0.45,WeatherDisplay:10.37,2013-03-19 19:01:00,
2013-03-19 15:07:00,39.1,34.7,29.65,WNW,302,0.8,3.5,84,0.07,RA,,0.46,WeatherDisplay:10.37,2013-03-19 19:07:00,
2013-03-19 15:12:00,39.6,34.6,29.65,NW,313,0.0,1.2,82,0.06,RA,,0.46,WeatherDisplay:10.37,2013-03-19 19:12:00,
2013-03-19 15:17:00,40.3,34.9,29.65,NNW,328,0.6,2.3,81,0.07,RA,,0.47,WeatherDisplay:10.37,2013-03-19 19:17:00,
2013-03-19 15:22:00,40.6,34.9,29.65,West,281,0.5,3.5,80,0.06,RA,,0.47,WeatherDisplay:10.37,2013-03-19 19:22:00,
2013-03-19 15:27:00,40.9,34.6,29.65,WNW,301,0.0,0.0,78,0.05,,,0.48,WeatherDisplay:10.37,2013-03-19 19:27:00,
2013-03-19 15:33:00,41.5,35.2,29.64,NW,305,0.5,4.0,78,0.06,RA,,0.48,WeatherDisplay:10.37,2013-03-19 19:33:00,
2013-03-19 15:38:00,41.5,34.2,29.65,NW,309,0.0,0.0,75,0.05,,,0.48,WeatherDisplay:10.37,2013-03-19 19:38:00,
2013-03-19 15:43:00,42.3,35.6,29.64,NW,311,0.0,0.0,77,0.05,CLR,,0.48,WeatherDisplay:10.37,2013-03-19 19:43:00,
2013-03-19 15:48:00,42.9,34.5,29.64,WSW,247,2.5,5.8,72,0.05,RA,,0.49,WeatherDisplay:10.37,2013-03-19 19:48:00,
2013-03-19 15:54:00,42.6,33.5,29.64,SW,224,6.0,10.4,70,0.04,RA,,0.49,WeatherDisplay:10.37,2013-03-19 19:54:00,
2013-03-19 15:59:00,42.5,33.4,29.64,WSW,247,1.0,1.2,70,0.04,CLR,,0.49,WeatherDisplay:10.37,2013-03-19 19:59:00,
2013-03-19 16:04:00,42.8,34.7,29.64,SW,223,0.0,0.0,73,0.04,CLR,,0.49,WeatherDisplay:10.37,2013-03-19 20:04:00,
2013-03-19 16:09:00,43.5,34.4,29.64,WNW,301,1.5,5.0,70,0.03,CLR,,0.49,WeatherDisplay:10.37,2013-03-19 20:09:00,
2013-03-19 16:14:00,43.3,33.8,29.64,West,261,0.0,0.0,69,0.04,RA,,0.50,WeatherDisplay:10.37,2013-03-19 20:14:00,
2013-03-19 16:20:00,42.9,33.8,29.64,SW,222,2.9,4.6,70,0.03,RA,,0.50,WeatherDisplay:10.37,2013-03-19 20:20:00,
2013-03-19 16:25:00,42.8,34.4,29.64,SSW,195,2.8,8.1,72,0.03,CLR,,0.50,WeatherDisplay:10.37,2013-03-19 20:25:00,
2013-03-19 16:30:00,43.1,34.7,29.64,SSW,195,2.4,4.6,72,0.02,CLR,,0.50,WeatherDisplay:10.37,2013-03-19 20:30:00,
2013-03-19 16:35:00,43.8,34.3,29.64,WSW,241,0.6,6.9,69,0.02,CLR,,0.50,WeatherDisplay:10.37,2013-03-19 20:35:00,
2013-03-19 16:41:00,44.2,33.2,29.64,WNW,289,2.9,4.6,65,0.02,CLR,,0.50,WeatherDisplay:10.37,2013-03-19 20:41:00,
2013-03-19 16:47:00,44.3,34.0,29.64,WSW,241,2.5,5.8,67,0.01,CLR,,0.50,WeatherDisplay:10.37,2013-03-19 20:47:00,
2013-03-19 16:52:00,44.5,33.5,29.63,WSW,240,6.1,10.4,65,0.01,CLR,,0.50,WeatherDisplay:10.37,2013-03-19 20:52:00,
2013-03-19 16:57:00,44.6,33.6,29.63,WSW,243,0.8,3.5,65,0.01,CLR,,0.50,WeatherDisplay:10.37,2013-03-19 20:57:00,
2013-03-19 17:02:00,44.9,33.1,29.63,West,267,1.2,3.5,63,0.01,CLR,,0.50,WeatherDisplay:10.37,2013-03-19 21:02:00,
2013-03-19 17:07:00,45.4,33.5,29.63,NNW,329,1.1,7.0,63,0.01,CLR,,0.50,WeatherDisplay:10.37,2013-03-19 21:07:00,
2013-03-19 17:12:00,45.5,31.6,29.63,West,263,5.2,10.4,58,0.00,CLR,,0.50,WeatherDisplay:10.37,2013-03-19 21:12:00,
2013-03-19 17:17:00,45.5,29.8,29.63,WSW,246,4.7,11.5,54,0.00,CLR,,0.50,WeatherDisplay:10.37,2013-03-19 21:17:00,
2013-03-19 17:22:00,45.5,30.7,29.62,West,281,1.9,4.6,56,0.00,CLR,,0.50,WeatherDisplay:10.37,2013-03-19 21:22:00,
2013-03-19 17:27:00,45.7,31.8,29.62,West,271,1.0,2.3,58,0.00,CLR,,0.50,WeatherDisplay:10.37,2013-03-19 21:27:00,
2013-03-19 17:32:00,45.7,30.0,29.63,WSW,241,2.9,6.9,54,0.00,CLR,,0.50,WeatherDisplay:10.37,2013-03-19 21:32:00,
2013-03-19 17:37:00,45.8,31.0,29.63,West,278,0.5,3.5,56,0.00,CLR,,0.50,WeatherDisplay:10.37,2013-03-19 21:37:00,
2013-03-19 17:43:00,46.0,30.7,29.63,WSW,253,1.0,2.3,55,0.00,CLR,,0.50,WeatherDisplay:10.37,2013-03-19 21:43:00,
2013-03-19 17:48:00,46.2,31.4,29.63,West,271,0.0,0.0,56,0.00,CLR,,0.50,WeatherDisplay:10.37,2013-03-19 21:48:00,
2013-03-19 17:53:00,46.2,30.0,29.62,West,277,2.8,9.2,53,0.00,CLR,,0.50,WeatherDisplay:10.37,2013-03-19 21:53:00,
2013-03-19 17:58:00,46.2,30.5,29.62,WSW,243,0.1,2.3,54,0.00,CLR,,0.50,WeatherDisplay:10.37,2013-03-19 21:58:00,
2013-03-19 18:04:00,46.1,30.4,29.62,WSW,256,1.1,2.3,54,0.00,CLR,,0.50,WeatherDisplay:10.37,2013-03-19 22:04:00,
2013-03-19 18:09:00,45.8,30.1,29.62,West,274,0.6,3.5,54,0.00,CLR,,0.50,WeatherDisplay:10.37,2013-03-19 22:09:00,
2013-03-19 18:14:00,45.4,30.6,29.62,West,274,0.0,0.0,56,0.00,CLR,,0.50,WeatherDisplay:10.37,2013-03-19 22:14:00,
2013-03-19 18:19:00,44.8,29.6,29.63,WNW,295,2.2,5.8,55,0.00,CLR,,0.50,WeatherDisplay:10.37,2013-03-19 22:19:00,
2013-03-19 18:24:00,44.1,29.8,29.65,North,352,10.5,24.2,57,0.00,CLR,,0.50,WeatherDisplay:10.37,2013-03-19 22:24:00,
2013-03-19 18:29:00,42.3,31.4,29.65,North,352,2.2,3.5,65,0.00,CLR,,0.50,WeatherDisplay:10.37,2013-03-19 22:29:00,
2013-03-19 18:34:00,40.2,31.9,29.65,NNW,344,2.2,4.6,72,0.01,RA,,0.51,WeatherDisplay:10.37,2013-03-19 22:34:00,
2013-03-19 18:39:00,39.3,31.7,29.66,NW,322,0.1,1.2,74,0.01,RA,,0.51,WeatherDisplay:10.37,2013-03-19 22:39:00,
2013-03-19 18:44:00,39.1,32.5,29.67,NW,309,1.4,3.5,77,0.01,CLR,,0.51,WeatherDisplay:10.37,2013-03-19 22:44:00,
2013-03-19 18:50:00,38.9,32.3,29.67,WNW,302,0.0,0.0,77,0.01,CLR,,0.51,WeatherDisplay:10.37,2013-03-19 22:50:00,
2013-03-19 18:55:00,38.8,32.5,29.66,WNW,302,0.0,0.0,78,0.01,CLR,,0.51,WeatherDisplay:10.37,2013-03-19 22:55:00,
2013-03-19 19:00:00,38.6,32.6,29.66,WNW,302,0.0,0.0,79,0.01,CLR,,0.51,WeatherDisplay:10.37,2013-03-19 23:00:00,
2013-03-19 19:05:00,38.6,32.3,29.66,WNW,302,0.0,0.0,78,0.01,CLR,,0.51,WeatherDisplay:10.37,2013-03-19 23:05:00,
2013-03-19 19:10:00,38.5,32.2,29.65,WNW,302,0.0,0.0,78,0.01,CLR,,0.51,WeatherDisplay:10.37,2013-03-19 23:10:00,
2013-03-19 19:15:00,38.5,32.2,29.65,WNW,302,0.0,0.0,78,0.01,CLR,,0.51,WeatherDisplay:10.37,2013-03-19 23:15:00,
2013-03-19 19:21:00,38.5,31.9,29.65,WNW,302,0.0,0.0,77,0.01,CLR,,0.51,WeatherDisplay:10.37,2013-03-19 23:21:00,
2013-03-19 19:26:00,38.5,31.6,29.66,NW,304,0.0,0.0,76,0.01,CLR,,0.51,WeatherDisplay:10.37,2013-03-19 23:26:00,
2013-03-19 19:31:00,38.5,31.6,29.66,NW,304,0.0,0.0,76,0.01,CLR,,0.51,WeatherDisplay:10.37,2013-03-19 23:31:00,
2013-03-19 19:36:00,38.2,31.6,29.67,NW,304,0.0,0.0,77,0.00,CLR,,0.51,WeatherDisplay:10.37,2013-03-19 23:36:00,
2013-03-19 19:42:00,38.0,31.4,29.67,NW,304,0.0,0.0,77,0.00,CLR,,0.51,WeatherDisplay:10.37,2013-03-19 23:42:00,
2013-03-19 19:47:00,37.9,31.3,29.67,NW,309,0.0,0.0,77,0.00,CLR,,0.51,WeatherDisplay:10.37,2013-03-19 23:47:00,
2013-03-19 19:52:00,38.3,30.7,29.68,WNW,298,3.1,4.6,74,0.00,CLR,,0.51,WeatherDisplay:10.37,2013-03-19 23:52:00,
2013-03-19 19:57:00,38.6,30.7,29.68,NW,320,2.6,6.9,73,0.00,CLR,,0.51,WeatherDisplay:10.37,2013-03-19 23:57:00,
2013-03-19 20:03:00,38.8,30.2,29.68,NW,318,1.9,6.0,71,0.00,CLR,,0.51,WeatherDisplay:10.37,2013-03-20 00:03:00,
2013-03-19 20:08:00,39.5,28.7,29.68,NW,318,3.7,13.8,65,0.00,CLR,,0.51,WeatherDisplay:10.37,2013-03-20 00:08:00,
2013-03-19 20:14:00,39.8,28.6,29.68,WNW,291,1.0,3.5,64,0.00,CLR,,0.51,WeatherDisplay:10.37,2013-03-20 00:14:00,
2013-03-19 20:19:00,39.6,28.4,29.68,West,270,2.5,5.8,64,0.00,CLR,,0.51,WeatherDisplay:10.37,2013-03-20 00:19:00,
2013-03-19 20:24:00,39.8,27.4,29.69,NNW,336,2.0,5.8,61,0.00,CLR,,0.51,WeatherDisplay:10.37,2013-03-20 00:24:00,
2013-03-19 20:29:00,40.1,24.8,29.70,SW,230,4.2,17.3,54,0.00,CLR,,0.51,WeatherDisplay:10.37,2013-03-20 00:29:00,
2013-03-19 20:34:00,40.6,23.4,29.70,NW,306,1.8,17.0,50,0.00,CLR,,0.51,WeatherDisplay:10.37,2013-03-20 00:34:00,
2013-03-19 20:39:00,41.1,21.3,29.69,WNW,294,9.1,17.0,45,0.00,CLR,,0.52,WeatherDisplay:10.37,2013-03-20 00:39:00,
2013-03-19 20:44:00,41.3,21.5,29.70,NW,323,7.2,11.5,45,0.01,RA,,0.52,WeatherDisplay:10.37,2013-03-20 00:44:00,
2013-03-19 20:49:00,41.5,21.7,29.71,West,277,1.9,6.0,45,0.01,RA,,0.52,WeatherDisplay:10.37,2013-03-20 00:49:00,
2013-03-19 20:55:00,41.2,21.4,29.71,West,272,2.5,8.1,45,0.01,CLR,,0.52,WeatherDisplay:10.37,2013-03-20 00:55:00,
2013-03-19 21:00:00,41.1,20.8,29.72,WNW,298,3.3,6.9,44,0.01,CLR,,0.52,WeatherDisplay:10.37,2013-03-20 01:00:00,
2013-03-19 21:05:00,40.9,20.1,29.72,NW,309,3.4,6.9,43,0.01,CLR,,0.52,WeatherDisplay:10.37,2013-03-20 01:05:00,
2013-03-19 21:10:00,40.6,18.7,29.72,NW,304,11.5,20.7,41,0.01,CLR,,0.52,WeatherDisplay:10.37,2013-03-20 01:10:00,
2013-03-19 21:15:00,40.5,18.6,29.72,NW,319,8.5,18.4,41,0.01,CLR,,0.52,WeatherDisplay:10.37,2013-03-20 01:15:00,
2013-03-19 21:20:00,40.1,17.7,29.72,West,272,8.1,21.9,40,0.01,CLR,,0.52,WeatherDisplay:10.37,2013-03-20 01:20:00,
2013-03-19 21:25:00,39.9,18.6,29.72,WSW,246,1.7,11.5,42,0.01,CLR,,0.52,WeatherDisplay:10.37,2013-03-20 01:25:00,
2013-03-19 21:31:00,39.5,19.4,29.72,NW,316,2.8,10.4,44,0.01,CLR,,0.52,WeatherDisplay:10.37,2013-03-20 01:31:00,
2013-03-19 21:36:00,39.2,21.6,29.73,NW,312,1.2,13.0,49,0.01,CLR,,0.52,WeatherDisplay:10.37,2013-03-20 01:36:00,
2013-03-19 21:41:00,38.6,25.5,29.73,NNW,344,5.0,6.9,59,0.00,CLR,,0.52,WeatherDisplay:10.37,2013-03-20 01:41:00,
2013-03-19 21:46:00,38.2,25.9,29.74,WNW,294,0.4,6.9,61,0.00,CLR,,0.52,WeatherDisplay:10.37,2013-03-20 01:46:00,
2013-03-19 21:51:00,37.9,25.6,29.74,NW,312,0.7,1.2,61,0.00,CLR,,0.52,WeatherDisplay:10.37,2013-03-20 01:51:00,
2013-03-19 21:56:00,37.9,24.8,29.74,NW,312,5.4,13.8,59,0.00,CLR,,0.52,WeatherDisplay:10.37,2013-03-20 01:56:00,
2013-03-19 22:01:00,37.8,23.5,29.75,West,278,0.0,0.0,56,0.00,CLR,,0.52,WeatherDisplay:10.37,2013-03-20 02:01:00,
2013-03-19 22:06:00,37.6,21.5,29.75,WNW,284,0.9,3.5,52,0.00,CLR,,0.52,WeatherDisplay:10.37,2013-03-20 02:06:00,
2013-03-19 22:11:00,37.6,20.1,29.75,NNW,330,0.4,5.0,49,0.00,CLR,,0.52,WeatherDisplay:10.37,2013-03-20 02:11:00,
2013-03-19 22:16:00,37.3,15.7,29.75,WNW,282,10.0,17.3,41,0.00,CLR,,0.52,WeatherDisplay:10.37,2013-03-20 02:16:00,
2013-03-19 22:21:00,37.2,15.6,29.75,West,272,6.8,18.4,41,0.00,CLR,,0.52,WeatherDisplay:10.37,2013-03-20 02:21:00,
2013-03-19 22:27:00,36.9,15.9,29.75,NW,306,10.0,25.3,42,0.00,CLR,,0.52,WeatherDisplay:10.37,2013-03-20 02:27:00,
2013-03-19 22:32:00,36.8,16.4,29.75,WSW,247,3.9,11.5,43,0.00,CLR,,0.52,WeatherDisplay:10.37,2013-03-20 02:32:00,
2013-03-19 22:37:00,36.5,15.6,29.75,WNW,301,4.2,13.8,42,0.00,CLR,,0.52,WeatherDisplay:10.37,2013-03-20 02:37:00,
2013-03-19 22:42:00,36.3,15.9,29.75,NW,323,5.3,17.0,43,0.00,CLR,,0.52,WeatherDisplay:10.37,2013-03-20 02:42:00,
2013-03-19 22:47:00,36.0,15.6,29.75,NNW,335,12.5,19.6,43,0.00,CLR,,0.52,WeatherDisplay:10.37,2013-03-20 02:47:00,
2013-03-19 22:52:00,35.8,15.5,29.75,West,268,9.1,16.1,43,0.00,CLR,,0.52,WeatherDisplay:10.37,2013-03-20 02:52:00,
2013-03-19 22:57:00,35.5,16.7,29.75,NNW,340,3.5,10.4,46,0.00,CLR,,0.52,WeatherDisplay:10.37,2013-03-20 02:57:00,
2013-03-19 23:02:00,35.3,16.0,29.75,NW,304,3.7,5.8,45,0.00,CLR,,0.52,WeatherDisplay:10.37,2013-03-20 03:02:00,
2013-03-19 23:08:00,35.0,16.3,29.75,West,277,1.9,8.1,46,0.00,CLR,,0.52,WeatherDisplay:10.37,2013-03-20 03:08:00,
2013-03-19 23:13:00,34.9,16.2,29.75,North,359,5.5,10.4,46,0.00,CLR,,0.52,WeatherDisplay:10.37,2013-03-20 03:13:00,
2013-03-19 23:18:00,34.6,16.4,29.75,NW,309,2.3,8.1,47,0.00,CLR,,0.52,WeatherDisplay:10.37,2013-03-20 03:18:00,
2013-03-19 23:23:00,34.4,15.7,29.75,WNW,289,6.1,12.7,46,0.00,CLR,,0.52,WeatherDisplay:10.37,2013-03-20 03:23:00,
2013-03-19 23:28:00,34.4,15.2,29.76,NW,326,8.0,11.5,45,0.00,CLR,,0.52,WeatherDisplay:10.37,2013-03-20 03:28:00,
2013-03-19 23:34:00,34.3,15.1,29.76,NW,305,7.6,12.7,45,0.00,CLR,,0.52,WeatherDisplay:10.37,2013-03-20 03:34:00,
2013-03-19 23:39:00,34.1,14.9,29.76,NW,309,4.0,6.9,45,0.00,CLR,,0.52,WeatherDisplay:10.37,2013-03-20 03:39:00,
2013-03-19 23:44:00,34.0,15.4,29.76,NW,309,5.0,10.4,46,0.00,CLR,,0.52,WeatherDisplay:10.37,2013-03-20 03:44:00,
2013-03-19 23:49:00,33.8,15.2,29.76,WNW,301,5.0,8.1,46,0.00,CLR,,0.52,WeatherDisplay:10.37,2013-03-20 03:49:00,
2013-03-19 23:54:00,33.7,15.6,29.77,West,263,3.8,11.5,47,0.00,CLR,,0.52,WeatherDisplay:10.37,2013-03-20 03:54:00,
2013-03-19 23:59:00,33.7,15.6,29.77,NW,304,7.4,11.5,47,0.00,CLR,,0.52,WeatherDisplay:10.37,2013-03-20 03:59:00,